Theta_e
316 316 315 315 315 316 316 315 315 314 314 314 314 314 315 317 319 322 326 330 336 336 337 336 334 334 335 336 341 342 339 344 346 346 351 352 352 352 351 350 352 349 349 347 348
317 316 316 316 315 315 316 316 315 314 314 314 314 314 315 316 319 322 324 327 329 332 337 336 335 337 336 336 339 336 339 342 342 343 354 354 352 351 352 351 349 351 350 348 349
317 317 317 316 316 315 316 316 315 314 314 314 314 314 315 316 319 323 328 327 329 331 337 334 335 337 336 335 336 337 340 338 341 351 353 353 352 351 351 350 348 351 351 350 350
316 317 317 317 317 316 316 316 315 315 314 314 314 314 315 315 320 330 330 330 330 331 336 333 336 336 334 334 335 341 339 340 351 353 352 354 350 350 350 347 346 349 348 349 350
315 316 317 317 317 317 316 316 316 315 314 313 314 314 314 315 318 325 328 329 331 332 331 332 337 336 334 333 335 339 339 341 348 352 353 352 352 353 350 346 346 347 348 348 347
315 315 316 317 318 318 317 316 316 315 314 314 313 313 314 312 319 323 327 329 329 330 331 336 338 337 335 334 335 339 341 343 349 352 353 354 354 350 350 349 347 346 347 347 347
316 315 315 316 317 318 318 317 316 315 314 313 313 313 314 317 319 323 328 328 329 332 335 338 337 335 335 333 335 341 341 341 346 350 353 351 353 354 350 349 349 347 346 346 346
318 316 315 315 316 318 318 317 316 315 314 313 313 313 314 317 318 321 328 328 328 331 337 335 334 334 335 334 333 339 340 344 343 348 352 340 350 352 350 350 351 350 348 348 348
320 319 317 315 316 318 319 318 316 314 314 313 313 313 315 318 319 320 326 326 326 328 332 333 334 333 333 330 330 331 342 343 344 345 351 347 349 352 351 351 351 351 351 350 350
321 320 319 317 315 317 319 318 316 320 321 316 314 313 316 319 319 320 324 324 325 327 333 334 333 328 325 328 334 336 335 336 341 343 346 348 345 352 351 350 350 350 351 350 351
321 321 320 319 316 316 319 316 320 320 319 319 317 316 317 318 320 321 321 322 323 325 329 329 330 333 331 330 331 332 332 334 334 338 345 346 343 352 351 350 349 350 350 351 350
321 321 321 320 316 317 321 318 320 319 320 320 319 318 320 320 319 321 321 322 322 322 326 328 330 330 330 329 331 331 333 333 333 336 344 342 343 351 351 350 349 349 349 350 349
322 321 321 320 316 319 321 319 320 319 318 319 318 318 318 318 319 320 321 321 321 322 326 328 329 329 331 331 332 331 333 333 333 338 338 340 342 351 349 349 348 348 348 348 349
320 321 321 321 318 317 320 318 320 320 310 314 317 319 319 320 320 321 321 322 321 321 324 326 327 330 331 330 330 332 330 332 336 338 341 337 337 341 346 348 346 347 347 346 346
320 320 321 321 320 318 318 320 320 318 313 316 319 319 320 319 318 320 321 322 319 323 325 328 326 328 330 331 330 329 329 330 331 333 333 337 335 333 339 345 347 345 345 345 346
320 321 320 320 320 318 319 320 320 312 314 319 318 319 319 318 318 318 320 321 322 323 322 325 323 325 324 326 327 328 328 326 324 324 329 328 334 334 341 341 341 346 346 346 346
319 320 321 320 320 319 320 320 314 317 315 319 320 318 315 316 318 317 318 318 318 320 321 321 323 323 325 326 324 324 324 327 330 329 329 328 334 334 337 337 338 344 348 347 346
317 319 321 320 320 320 319 315 319 315 318 318 319 317 317 315 316 315 316 315 316 318 316 321 322 323 324 324 325 324 323 325 334 331 330 334 339 339 340 343 345 348 347 346 347
316 320 320 320 321 319 320 314 313 313 318 318 315 316 317 316 315 315 313 312 313 316 320 319 321 321 323 325 324 326 328 324 324 327 333 337 341 340 341 345 345 345 344 342 342
316 318 319 323 317 317 314 314 315 315 318 317 318 318 319 318 320 313 312 312 314 315 317 318 320 320 322 324 324 325 324 329 325 336 339 341 343 342 344 346 345 344 344 345 345
317 318 322 320 315 319 316 313 316 318 318 318 318 318 318 319 319 315 314 314 314 313 316 316 318 320 323 323 322 321 324 323 325 329 337 341 341 334 340 345 345 344 344 344 343
317 315 320 319 316 312 315 315 318 318 318 317 316 316 317 319 319 315 314 315 317 315 317 316 314 316 319 320 320 321 320 324 324 330 334 333 335 337 340 345 345 345 343 347 347
315 317 320 319 315 314 314 317 318 318 318 319 317 316 316 318 320 319 317 319 317 317 317 316 316 318 319 319 319 321 323 323 323 330 337 336 332 337 339 340 343 343 345 346 348
314 320 322 321 318 317 321 322 322 325 321 320 318 317 317 319 316 321 324 324 323 317 320 320 312 318 320 320 322 330 330 325 327 331 331 333 334 340 339 341 341 342 344 347 347
316 316 318 321 321 322 323 325 329 330 327 327 323 316 320 320 319 321 321 321 323 328 320 315 317 314 317 318 324 325 332 328 328 329 335 334 338 339 339 341 341 340 345 345 344
316 316 318 319 320 324 322 328 331 333 332 330 321 321 326 319 320 322 321 321 325 322 321 313 318 319 324 326 331 334 332 327 330 331 335 336 339 335 338 342 340 341 342 344 343
312 313 316 319 320 323 326 328 331 330 329 331 330 332 332 327 323 325 327 324 323 326 320 318 322 324 322 332 332 334 332 330 332 332 334 338 334 338 339 340 340 342 345 344 343
Wind_Speed
12 12 12 13 13 14 14 13 12 11 10 10 10 10 11 10 11 14 15 7 2 2 6 12 13 13 10 1 4 1 4 0 2 2 4 11 4 3 5 12 3 2 15 27 28
13 13 13 13 14 14 15 14 13 12 10 10 10 11 11 10 11 14 11 10 9 7 7 10 13 14 3 2 3 3 3 7 5 5 5 8 4 6 4 4 5 13 17 31 27
13 13 13 13 14 14 14 15 14 13 12 10 10 10 10 9 8 2 1 6 8 8 7 9 11 12 4 3 4 4 5 5 3 13 18 10 5 4 11 1 7 20 30 30 26
13 14 13 13 14 14 14 15 15 14 13 10 10 10 10 6 4 3 4 2 4 5 6 7 10 7 4 4 4 1 1 4 13 14 12 8 12 8 3 2 10 23 29 28 25
15 14 14 13 13 14 14 15 15 15 13 11 10 10 9 5 6 2 3 3 5 5 3 4 5 5 3 4 4 2 4 6 16 18 14 15 8 5 8 11 19 23 23 23 22
16 16 15 15 14 14 15 15 15 14 14 11 10 10 8 4 6 5 2 5 4 4 2 1 4 9 2 4 3 1 8 7 16 13 12 11 7 3 7 14 19 22 21 20 20
17 17 17 16 16 15 15 15 15 14 13 12 11 10 13 16 5 6 4 1 2 4 3 1 3 6 9 3 5 11 6 6 5 6 4 23 1 4 18 18 20 20 21 19 17
18 18 18 18 17 15 15 16 15 13 11 11 11 12 10 7 9 10 7 2 0 2 3 1 2 3 1 4 5 5 6 3 4 5 11 2 2 2 21 24 20 21 21 21 20
18 19 19 20 19 16 14 16 14 11 9 10 10 7 10 5 2 8 8 5 1 3 3 3 1 1 3 4 5 6 2 2 1 9 5 0 3 8 24 22 19 22 23 22 21
19 19 19 20 20 17 15 14 9 8 8 9 10 6 6 3 7 6 11 7 3 2 6 5 3 4 4 5 2 1 3 3 6 6 5 7 4 10 23 21 22 24 24 25 23
20 20 19 20 20 17 14 5 5 4 7 8 6 12 21 11 10 4 8 6 6 2 3 3 4 5 6 5 5 3 5 8 6 7 9 11 6 14 21 20 20 23 22 26 27
20 21 20 19 18 12 8 5 7 8 11 14 18 22 24 21 8 3 9 7 4 4 4 4 5 4 4 6 5 6 5 3 4 5 10 7 4 11 18 25 25 23 24 28 26
19 20 20 18 15 6 4 5 10 14 4 9 8 11 13 11 8 7 10 8 3 5 4 6 5 5 4 3 3 3 3 0 3 5 5 5 3 5 9 16 22 22 26 24 23
19 20 20 18 10 11 3 9 14 2 5 7 4 3 8 7 5 14 12 6 2 10 8 4 5 5 1 1 4 5 5 4 4 3 3 2 4 5 5 11 11 20 23 18 19
19 19 18 16 16 8 4 9 6 3 3 2 1 1 8 8 0 4 15 8 7 6 6 7 5 4 3 4 5 6 2 3 3 5 5 2 3 5 1 8 15 16 18 20 24
19 19 18 16 13 5 2 6 2 5 5 6 2 1 3 4 2 3 4 5 6 4 3 6 1 1 6 3 5 5 4 6 4 3 2 3 3 5 4 4 3 6 17 27 31
19 17 18 15 7 7 4 1 5 3 5 6 3 3 2 4 3 2 3 3 6 4 4 4 3 3 3 2 4 6 6 4 4 3 5 3 3 7 6 5 6 12 22 24 29
18 17 16 15 10 6 2 4 2 3 5 5 5 2 1 3 2 2 3 2 2 6 3 6 7 6 4 7 6 5 7 5 3 2 4 1 3 5 2 5 4 11 20 20 20
17 15 13 8 10 10 5 3 7 5 4 6 7 6 6 3 4 2 4 6 7 7 7 5 5 5 3 4 7 3 3 4 7 3 3 3 5 8 2 2 4 11 16 16 15
17 13 4 5 9 18 4 5 4 4 4 3 2 3 4 5 2 3 6 5 7 10 5 6 1 3 4 3 2 3 5 3 3 4 3 4 4 5 6 7 3 4 7 10 10
12 5 8 9 18 11 4 6 5 8 6 1 1 4 3 3 2 3 5 5 6 6 7 6 4 5 2 3 7 1 1 6 5 4 5 3 6 6 10 7 7 5 5 7 6
5 2 4 22 4 1 4 5 2 4 3 5 2 7 6 2 4 4 6 7 12 14 11 8 6 5 11 5 3 3 7 6 5 4 2 2 5 3 4 8 10 8 12 9 6
9 2 10 3 3 1 4 3 3 2 4 2 3 6 3 3 3 6 5 7 7 6 9 8 1 1 9 6 2 4 5 4 5 4 7 6 6 3 6 8 11 16 15 12 10
4 2 3 5 1 4 2 3 3 5 5 5 5 2 1 3 5 5 4 3 5 9 16 16 4 7 9 9 4 4 4 5 5 4 6 6 4 6 6 7 9 14 16 15 15
5 2 2 1 1 0 1 1 2 3 3 4 3 4 2 4 4 4 3 5 5 2 4 5 9 8 7 7 5 5 4 7 8 2 6 8 11 9 14 12 17 20 18 19 22
4 4 3 2 5 1 3 2 2 2 2 5 4 5 7 6 7 5 1 3 6 1 3 3 3 7 5 5 7 3 2 6 4 4 3 7 4 3 17 19 21 22 21 22 22
5 3 2 3 2 1 3 3 3 4 6 15 6 7 7 12 12 20 21 20 8 3 3 4 5 4 7 3 6 1 8 6 4 4 6 6 8 10 8 15 25 27 24 25 23
Wind_Direction
9 8 1 355 353 347 346 347 340 332 326 322 317 307 297 285 272 272 268 263 288 244 310 329 341 340 326 265 189 182 62 102 186 165 121 136 126 61 107 116 84 160 151 164 160
9 4 1 355 352 348 345 345 340 332 325 320 318 312 303 297 279 267 288 282 267 269 293 318 337 353 11 125 189 110 113 213 190 144 130 142 114 120 134 105 71 106 142 158 163
1 358 358 353 351 347 344 342 339 332 324 319 316 314 307 314 312 125 168 245 244 246 273 315 341 343 15 334 164 195 183 174 117 126 130 123 115 134 131 224 197 157 151 160 167
353 351 351 348 346 344 341 338 336 332 324 319 312 314 311 305 155 131 73 87 199 198 251 318 339 3 25 6 348 207 358 94 132 130 124 133 125 123 313 181 166 156 157 161 173
350 345 342 340 341 339 337 335 334 329 322 319 313 314 314 280 245 210 49 77 111 155 243 325 11 4 351 323 5 80 28 47 139 138 138 133 106 115 92 133 146 155 165 172 180
346 342 338 335 334 335 333 331 329 325 318 317 310 308 307 277 229 203 119 74 118 169 192 71 351 339 316 334 40 184 86 82 122 128 128 116 131 63 149 157 157 164 173 184 190
342 339 337 331 329 328 330 327 325 318 313 310 308 304 287 253 257 219 199 127 122 165 169 153 356 325 327 347 9 122 91 66 107 127 100 120 74 152 167 172 174 179 183 188 195
339 335 332 329 325 326 328 321 318 311 307 304 306 308 268 283 266 248 210 228 222 176 177 224 338 313 293 341 33 63 74 113 233 145 169 76 217 186 173 177 189 192 197 204 202
335 335 332 327 324 325 324 317 314 308 307 304 302 308 277 306 268 228 230 235 231 190 177 225 153 127 56 65 32 11 153 209 200 205 166 163 181 190 183 187 194 202 211 216 223
332 332 332 329 324 326 327 322 315 306 287 283 263 294 273 285 327 230 212 229 247 322 150 174 129 82 51 63 129 349 21 277 234 204 183 179 231 168 187 199 204 207 215 224 227
326 328 331 330 328 333 344 337 324 295 297 248 264 276 287 295 311 227 194 205 227 107 139 45 86 214 184 154 158 178 211 236 251 217 175 200 173 186 191 209 215 214 222 226 227
322 324 329 332 332 343 15 64 46 337 302 283 266 258 265 276 300 253 201 180 153 170 134 30 211 183 147 157 167 193 232 262 283 296 177 154 192 196 192 212 215 210 214 227 238
320 320 325 333 335 7 42 52 342 329 260 294 265 256 249 243 231 258 190 166 115 139 159 175 217 160 140 124 34 217 248 222 272 359 42 108 336 194 217 215 225 228 228 226 233
318 318 323 332 332 347 132 345 333 359 43 282 282 304 197 159 256 223 188 161 151 186 149 230 231 212 211 122 136 309 210 254 142 124 217 181 257 238 231 216 231 225 226 205 194
314 314 317 320 318 333 291 327 338 359 356 273 266 133 173 185 117 217 199 195 168 159 127 236 173 136 142 204 169 239 291 279 322 143 103 273 88 274 120 228 224 219 203 191 197
310 310 308 309 315 329 263 328 129 41 260 338 100 98 117 330 308 107 153 190 175 138 74 207 317 162 175 181 185 254 26 35 54 95 56 305 124 286 207 227 275 202 200 193 198
306 303 299 293 293 302 286 328 40 150 324 333 339 10 176 192 281 60 141 141 146 126 260 354 234 252 161 11 350 76 60 341 353 17 211 300 81 243 269 298 244 214 189 198 204
305 299 290 286 272 267 232 57 182 269 262 309 335 301 218 168 224 45 79 165 71 91 98 157 319 180 171 169 184 183 155 152 250 237 281 318 231 254 235 338 350 170 179 192 197
310 305 295 269 234 203 174 95 209 212 285 336 334 54 343 28 117 129 194 200 202 169 158 131 262 278 225 136 145 167 177 184 106 17 73 290 293 301 288 65 85 129 172 179 187
323 320 306 267 199 175 94 218 233 225 326 351 334 37 351 316 54 164 194 210 199 188 155 198 341 239 269 119 42 156 155 75 15 136 222 287 274 240 256 236 161 178 156 191 201
329 336 337 152 152 163 152 225 260 259 234 259 247 324 265 277 240 216 218 247 197 184 133 137 123 280 93 170 192 58 31 54 115 118 159 170 260 218 214 191 189 197 146 155 163
352 42 110 136 80 67 160 200 244 277 247 261 211 217 223 267 269 234 222 232 181 150 158 197 159 195 220 238 173 152 210 153 122 228 143 158 267 308 192 143 180 144 140 141 143
350 34 162 32 122 265 288 268 237 273 263 252 272 212 191 255 283 215 220 268 180 140 164 177 230 252 324 347 76 195 188 140 113 88 190 146 255 3 105 144 155 150 146 146 151
5 41 115 220 46 118 46 291 306 307 255 248 267 267 300 280 225 288 307 306 335 212 208 147 136 169 220 208 178 199 181 168 141 138 169 218 218 236 192 171 152 153 158 149 147
20 37 45 305 317 253 217 276 304 342 288 294 273 216 30 284 308 231 241 309 323 85 100 122 192 173 226 210 185 244 194 177 208 191 163 220 192 214 190 179 162 162 154 144 140
23 20 3 279 301 267 122 182 214 283 231 281 209 311 287 229 208 267 275 233 246 323 101 3 230 167 236 181 187 239 204 182 176 152 264 124 253 165 135 166 154 163 170 160 157
24 10 323 286 341 113 213 195 227 356 265 243 296 320 262 248 266 266 264 264 257 297 158 134 131 114 240 181 119 330 219 199 170 178 148 169 216 153 143 159 174 177 184 184 173